FREGAT DEB, 45641

Orbit data source: Space-Track

FREGAT DEB, 45641 is space debris in LEO originally from a launch on Mon, 18 Jul 2011 UTC launched from the Tyuratam Missile And Space Complex (TTMTR). Debris objects in space refer to the collection of defunct objects orbiting the Earth. Examples of debris include non-operational satellites, rocket bodies, and fragments generated from explosions, collisions, or faulty payload assembly.

Loading next visibility...
Identifier
45641, 2011-037AH
Orbit
LEO
Last TLE update
1 day ago
Origin
Manufacturer
Lavochkin
Mission
Spacecraft
Bus & Motor
Unknown
Mass
Unknown
Launch date (UTC)
2011-07-18 (14 years ago)
Launch vehicle
Unknown
Launch site
Tyuratam Missile And Space Complex (TTMTR)
Object type
Payload
Rocket body
Debris
Shape & HBR
Unknown
Radar Cross Section
Medium (>0.1 m² and <1 m²)

Expand to show TLE details & history

TLE from 1 day ago
0 FREGAT DEB
1 45641U 11037AH  25191.29390334  .00072978  00000-0  23667-2 0  9992
2 45641  51.6006 185.8036 0550411 201.9612 155.6897 14.48964298236623
Epoch: 2025-07-10T07:03Z
TLE epoch observation values (Epoch: 2025-07-10T07:03:13.248Z)
Latitude
-0.00006°
Longitude
151.5361°
Altitude
1,089.61 km
Speed
7.121 km/s
True Right ascension
12h 23m 12s
True Declination
0° 00' 00"
Sunlit
Object was in daylight at epoch
Visualization orbit readout
Latitude
28.42238°
Longitude
172.05955°
Altitude
1,111.306 km
Speed
7.102 km/s
Apparent Right ascension
12h 11m 13s
Apparent Declination
-2° 56' 55"
Sunlit
Object is in daylight
Visualization observer readout
Local Sidereal Time
22:01:19
Azimuth
313.064° NW
Elevation
-42.781°
Doppler factor
1
Orbital elements
Apogee altitude
1,120.741 km
Perigee altitude
338.314 km
Semi-major axis
7,107.665 km
Eccentricity
0.05504
Inclination
51.6006°
RAAN
185.8036°
Arg. of periapsis
201.9612°
True anomaly
Unknown
Mean anomaly
155.6897°
Eccentric anomaly
Unknown
Mean motion
3.62204 °/min
Orbital period
99.39 mins
BSTAR
0.0023667
Loading maneuver chart data...
Loading SW <> Apogee altitude chart data...
Loading historical data...
Loading historical data...
Loading historical data...
Loading historical data...
Loading historical data...
Loading historical data...
Loading historical data...

FREGAT DEB Visibility forecast

Observer location: undefined°, undefined°

Span
Click to sort rows by Start time (UTC) header in descending order
Start Az.
Max El. time (UTC)
Max El. Az.
Max El.
End time (UTC)
End Az.
6 mins2025-07-11 10:08:34.034Z280.917° WNW2025-07-11 10:11:34.034Z233.777° WSW22.352°2025-07-11 10:14:34.034Z180.273° SSW
10 mins2025-07-12 00:33:34.034Z176.567° S2025-07-12 00:38:34.034Z126.368° SE24.983°2025-07-12 00:43:34.034Z76.262° E
12 mins2025-07-12 02:16:34.034Z233.439° WSW2025-07-12 02:22:34.034Z31.776° NE44.577°2025-07-12 02:28:34.034Z52.521° ENE
10 mins2025-07-12 04:01:34.034Z280.079° WNW2025-07-12 04:06:34.034Z336.029° NNW30.609°2025-07-12 04:11:34.034Z42.084° NE
8 mins2025-07-12 05:48:34.034Z317.188° NNW2025-07-12 05:51:34.034Z352.976° N23.76°2025-07-12 05:56:34.034Z57.534° ENE
7 mins2025-07-12 07:33:34.034Z322.131° NNW2025-07-12 07:37:34.034Z36.913° NE33.085°2025-07-12 07:40:34.034Z88.956° E
7 mins2025-07-12 09:17:34.034Z292.004° WNW2025-07-12 09:20:34.034Z241.526° WSW34.638°2025-07-12 09:24:34.034Z155.369° SSE
|